Blaj — YP2303 — position and weather

sailwx.info

Track history (hours):
 
Tides and Currents Weather Stations Pressure Air Temp Water Temp Dewpoint Dewpoint Depression Visibility Wind Speed Wind Dir Waves Ship Positions

Blaj

Last reported at 2017-Dec-12 10:09 UTC. Time now 2018-Jul-16 23:53 UTC.
Position N 44°18' E 028°03'.
Warning: this ship's position is months out of date.

Length 34 m; draft 1.6 m.

Type: Ship. MMSI: 264162303.

Date/timePositionNaut miles runAvg speedWind from/ knotsBaromVisibWave heightAir tempDewpointWater temp
2017-Dec-12 10:09N 44°18' E 028°03'0 2.7
2017-Dec-12 10:00N 44°18' E 028°03'3 4.9
2017-Dec-12 09:29N 44°16' E 028°06'2 4.9
2017-Dec-12 09:00N 44°16' E 028°09'3 5.1
2017-Dec-12 08:30N 44°16' E 028°13'2 5.0
2017-Dec-12 08:01N 44°15' E 028°16'3 5.1
2017-Dec-12 07:30N 44°15' E 028°20'2 4.8
2017-Dec-12 07:00N 44°14' E 028°23'3 3.6
2017-Dec-12 06:16N 44°14' E 028°26'4 3.8
2017-Dec-12 05:07N 44°16' E 028°31'0 4.1
2017-Dec-12 05:00N 44°16' E 028°32'0 0.7
2017-Dec-12 04:30N 44°16' E 028°32'0 0.0
2017-Dec-12 04:00N 44°16' E 028°32'0 0.0
2017-Dec-12 03:30N 44°16' E 028°32'0 0.0
2017-Dec-12 03:00N 44°16' E 028°32'0 0.0
2017-Dec-12 02:30N 44°16' E 028°32'0 0.0
2017-Dec-12 02:00N 44°16' E 028°32'0 0.0
2017-Dec-12 01:30N 44°16' E 028°32'0 0.0
2017-Dec-12 01:01N 44°16' E 028°32'0 0.0
2017-Dec-12 00:30N 44°16' E 028°32'0 0.0
2017-Dec-12 00:00N 44°16' E 028°32'0 0.0
2017-Dec-11 23:30N 44°16' E 028°32'0 0.0
2017-Dec-11 23:00N 44°16' E 028°32'0 0.0
2017-Dec-11 22:30N 44°16' E 028°32'0 0.0
2017-Dec-11 22:01N 44°16' E 028°32'0 0.0
2017-Dec-11 21:30N 44°16' E 028°32'0 0.0
2017-Dec-11 21:00N 44°16' E 028°32'0 0.0
2017-Dec-11 20:30N 44°16' E 028°32'0 0.0
2017-Dec-11 20:00N 44°16' E 028°32'0 0.0
2017-Dec-11 19:30N 44°16' E 028°32'0 0.0
2017-Dec-11 19:00N 44°16' E 028°32'0 0.0
2017-Dec-11 18:30N 44°16' E 028°32'0 0.0
2017-Dec-11 18:00N 44°16' E 028°32'0 0.0
2017-Dec-11 17:30N 44°16' E 028°32'0 0.0
2017-Dec-11 17:01N 44°16' E 028°32'0 0.0
2017-Dec-11 16:30N 44°16' E 028°32'0 0.0
2017-Dec-11 16:01N 44°16' E 028°32'0 0.2
2017-Dec-11 15:30N 44°16' E 028°33'0 0.4
2017-Dec-11 15:00N 44°16' E 028°33'0 0.9
2017-Dec-11 14:30N 44°16' E 028°33'0 0.0
2017-Dec-11 14:01N 44°16' E 028°33'0 0.0
2017-Dec-11 13:30N 44°16' E 028°33'0 0.0
2017-Dec-11 13:01N 44°16' E 028°33'0 0.0
2017-Dec-11 12:30N 44°16' E 028°33'0 0.0
2017-Dec-11 12:00N 44°16' E 028°33'1 1.1
2017-Dec-11 11:30N 44°16' E 028°33'0 0.4
2017-Dec-11 11:00N 44°16' E 028°32'0 0.1
2017-Dec-11 10:30N 44°16' E 028°32'0 0.4
2017-Dec-11 10:00N 44°16' E 028°33'1 1.2
2017-Dec-11 09:30N 44°16' E 028°34'0 0.2
2017-Dec-11 09:01N 44°16' E 028°33'0 0.0
2017-Dec-11 08:30N 44°16' E 028°33'0 0.0
2017-Dec-11 08:00N 44°16' E 028°33'0 0.0
2017-Dec-11 07:30N 44°16' E 028°33'0 0.0
2017-Dec-11 07:00N 44°16' E 028°33'0 0.0
2017-Dec-11 06:30N 44°16' E 028°33'1 1.1
2017-Dec-11 06:01N 44°16' E 028°33'0 0.3
2017-Dec-11 05:30N 44°16' E 028°33'0 0.2
2017-Dec-11 05:00N 44°16' E 028°32'0 0.0
2017-Dec-11 04:30N 44°16' E 028°32'0 0.0
2017-Dec-11 04:00N 44°16' E 028°32'0 0.0
2017-Dec-11 03:30N 44°16' E 028°32'0 0.0
2017-Dec-11 03:00N 44°16' E 028°32'0 0.0
2017-Dec-11 02:31N 44°16' E 028°32'0 0.0
2017-Dec-11 02:00N 44°16' E 028°32'0 0.0
2017-Dec-11 01:30N 44°16' E 028°32'0 0.0
2017-Dec-11 01:00N 44°16' E 028°32'0 0.0
2017-Dec-11 00:30N 44°16' E 028°32'0 0.0
2017-Dec-11 00:00N 44°16' E 028°32'0 0.0
2017-Dec-10 23:30N 44°16' E 028°32'0 0.0
2017-Dec-10 23:00N 44°16' E 028°32'0 0.0
2017-Dec-10 22:30N 44°16' E 028°32'0 0.0
2017-Dec-10 22:00N 44°16' E 028°32'0 0.0
2017-Dec-10 21:30N 44°16' E 028°32'0 0.0
2017-Dec-10 21:01N 44°16' E 028°32'0 0.0
2017-Dec-10 20:30N 44°16' E 028°32'0 0.0
2017-Dec-10 20:01N 44°16' E 028°32'0 0.0
2017-Dec-10 19:30N 44°16' E 028°32'0 0.0
2017-Dec-10 19:00N 44°16' E 028°32'0 0.0
2017-Dec-10 18:30N 44°16' E 028°32'0 0.0
2017-Dec-10 18:00N 44°16' E 028°32'0 0.0
2017-Dec-10 17:30N 44°16' E 028°32'0 0.0
2017-Dec-10 17:00N 44°16' E 028°32'0 0.0
2017-Dec-10 16:30N 44°16' E 028°32'0 0.2
2017-Dec-10 16:00N 44°16' E 028°32'1 2.2
2017-Dec-10 15:28N 44°16' E 028°31'1 2.8
2017-Dec-10 14:59N 44°15' E 028°29'2 2.9
2017-Dec-10 14:24N 44°14' E 028°27'1 2.9
2017-Dec-10 14:00N 44°14' E 028°26'1 2.9
2017-Dec-10 13:30N 44°13' E 028°24'2 3.3
2017-Dec-10 13:00N 44°14' E 028°22'2 4.1
2017-Dec-10 12:30N 44°15' E 028°20'2 4.3
2017-Dec-10 12:00N 44°15' E 028°17'2 4.2
2017-Dec-10 11:30N 44°15' E 028°14'2 4.2
2017-Dec-10 11:00N 44°16' E 028°11'2 4.2
2017-Dec-10 10:30N 44°16' E 028°08'  
Track history (hours):
 
Tides and Currents Weather Stations Pressure Air Temp Water Temp Dewpoint Dewpoint Depression Visibility Wind Speed Wind Dir Waves Ship Positions

Blaj

Last reported at 2017-Dec-12 10:09 UTC. Time now 2018-Jul-16 23:53 UTC.
Position N 44°18' E 028°03'.
Warning: this ship's position is months out of date.

Length 34 m; draft 1.6 m.

Type: Ship. MMSI: 264162303.

Date/timePositionNaut miles runAvg speedWind from/ knotsBaromVisibWave heightAir tempDewpointWater temp
2017-Dec-12 10:09N 44°18' E 028°03'0 2.7
2017-Dec-12 10:00N 44°18' E 028°03'3 4.9
2017-Dec-12 09:29N 44°16' E 028°06'2 4.9
2017-Dec-12 09:00N 44°16' E 028°09'3 5.1
2017-Dec-12 08:30N 44°16' E 028°13'2 5.0
2017-Dec-12 08:01N 44°15' E 028°16'3 5.1
2017-Dec-12 07:30N 44°15' E 028°20'2 4.8
2017-Dec-12 07:00N 44°14' E 028°23'3 3.6
2017-Dec-12 06:16N 44°14' E 028°26'4 3.8
2017-Dec-12 05:07N 44°16' E 028°31'0 4.1
2017-Dec-12 05:00N 44°16' E 028°32'0 0.7
2017-Dec-12 04:30N 44°16' E 028°32'0 0.0
2017-Dec-12 04:00N 44°16' E 028°32'0 0.0
2017-Dec-12 03:30N 44°16' E 028°32'0 0.0
2017-Dec-12 03:00N 44°16' E 028°32'0 0.0
2017-Dec-12 02:30N 44°16' E 028°32'0 0.0
2017-Dec-12 02:00N 44°16' E 028°32'0 0.0
2017-Dec-12 01:30N 44°16' E 028°32'0 0.0
2017-Dec-12 01:01N 44°16' E 028°32'0 0.0
2017-Dec-12 00:30N 44°16' E 028°32'0 0.0
2017-Dec-12 00:00N 44°16' E 028°32'0 0.0
2017-Dec-11 23:30N 44°16' E 028°32'0 0.0
2017-Dec-11 23:00N 44°16' E 028°32'0 0.0
2017-Dec-11 22:30N 44°16' E 028°32'0 0.0
2017-Dec-11 22:01N 44°16' E 028°32'0 0.0
2017-Dec-11 21:30N 44°16' E 028°32'0 0.0
2017-Dec-11 21:00N 44°16' E 028°32'0 0.0
2017-Dec-11 20:30N 44°16' E 028°32'0 0.0
2017-Dec-11 20:00N 44°16' E 028°32'0 0.0
2017-Dec-11 19:30N 44°16' E 028°32'0 0.0
2017-Dec-11 19:00N 44°16' E 028°32'0 0.0
2017-Dec-11 18:30N 44°16' E 028°32'0 0.0
2017-Dec-11 18:00N 44°16' E 028°32'0 0.0
2017-Dec-11 17:30N 44°16' E 028°32'0 0.0
2017-Dec-11 17:01N 44°16' E 028°32'0 0.0
2017-Dec-11 16:30N 44°16' E 028°32'0 0.0
2017-Dec-11 16:01N 44°16' E 028°32'0 0.2
2017-Dec-11 15:30N 44°16' E 028°33'0 0.4
2017-Dec-11 15:00N 44°16' E 028°33'0 0.9
2017-Dec-11 14:30N 44°16' E 028°33'0 0.0
2017-Dec-11 14:01N 44°16' E 028°33'0 0.0
2017-Dec-11 13:30N 44°16' E 028°33'0 0.0
2017-Dec-11 13:01N 44°16' E 028°33'0 0.0
2017-Dec-11 12:30N 44°16' E 028°33'0 0.0
2017-Dec-11 12:00N 44°16' E 028°33'1 1.1
2017-Dec-11 11:30N 44°16' E 028°33'0 0.4
2017-Dec-11 11:00N 44°16' E 028°32'0 0.1
2017-Dec-11 10:30N 44°16' E 028°32'0 0.4
2017-Dec-11 10:00N 44°16' E 028°33'1 1.2
2017-Dec-11 09:30N 44°16' E 028°34'0 0.2
2017-Dec-11 09:01N 44°16' E 028°33'0 0.0
2017-Dec-11 08:30N 44°16' E 028°33'0 0.0
2017-Dec-11 08:00N 44°16' E 028°33'0 0.0
2017-Dec-11 07:30N 44°16' E 028°33'0 0.0
2017-Dec-11 07:00N 44°16' E 028°33'0 0.0
2017-Dec-11 06:30N 44°16' E 028°33'1 1.1
2017-Dec-11 06:01N 44°16' E 028°33'0 0.3
2017-Dec-11 05:30N 44°16' E 028°33'0 0.2
2017-Dec-11 05:00N 44°16' E 028°32'0 0.0
2017-Dec-11 04:30N 44°16' E 028°32'0 0.0
2017-Dec-11 04:00N 44°16' E 028°32'0 0.0
2017-Dec-11 03:30N 44°16' E 028°32'0 0.0
2017-Dec-11 03:00N 44°16' E 028°32'0 0.0
2017-Dec-11 02:31N 44°16' E 028°32'0 0.0
2017-Dec-11 02:00N 44°16' E 028°32'0 0.0
2017-Dec-11 01:30N 44°16' E 028°32'0 0.0
2017-Dec-11 01:00N 44°16' E 028°32'0 0.0
2017-Dec-11 00:30N 44°16' E 028°32'0 0.0
2017-Dec-11 00:00N 44°16' E 028°32'0 0.0
2017-Dec-10 23:30N 44°16' E 028°32'0 0.0
2017-Dec-10 23:00N 44°16' E 028°32'0 0.0
2017-Dec-10 22:30N 44°16' E 028°32'0 0.0
2017-Dec-10 22:00N 44°16' E 028°32'0 0.0
2017-Dec-10 21:30N 44°16' E 028°32'0 0.0
2017-Dec-10 21:01N 44°16' E 028°32'0 0.0
2017-Dec-10 20:30N 44°16' E 028°32'0 0.0
2017-Dec-10 20:01N 44°16' E 028°32'0 0.0
2017-Dec-10 19:30N 44°16' E 028°32'0 0.0
2017-Dec-10 19:00N 44°16' E 028°32'0 0.0
2017-Dec-10 18:30N 44°16' E 028°32'0 0.0
2017-Dec-10 18:00N 44°16' E 028°32'0 0.0
2017-Dec-10 17:30N 44°16' E 028°32'0 0.0
2017-Dec-10 17:00N 44°16' E 028°32'0 0.0
2017-Dec-10 16:30N 44°16' E 028°32'0 0.2
2017-Dec-10 16:00N 44°16' E 028°32'1 2.2
2017-Dec-10 15:28N 44°16' E 028°31'1 2.8
2017-Dec-10 14:59N 44°15' E 028°29'2 2.9
2017-Dec-10 14:24N 44°14' E 028°27'1 2.9
2017-Dec-10 14:00N 44°14' E 028°26'1 2.9
2017-Dec-10 13:30N 44°13' E 028°24'2 3.3
2017-Dec-10 13:00N 44°14' E 028°22'2 4.1
2017-Dec-10 12:30N 44°15' E 028°20'2 4.3
2017-Dec-10 12:00N 44°15' E 028°17'2 4.2
2017-Dec-10 11:30N 44°15' E 028°14'2 4.2
2017-Dec-10 11:00N 44°16' E 028°11'2 4.2
2017-Dec-10 10:30N 44°16' E 028°08'  

Dump ship's entire track history